HULIANWANG DIGUI 6F

Last updated on Wed Aug 13 2025 00:02:08 GMT+0000 (Coordinated Universal Time)

1 65048U 25162F 25224.23322049 .00000019 00000+0 10321-3 0 9998 2 65048 50.0068 322.4514 0005902 315.5491 44.4941 14.06242605 1826
UTC large
Height (km)
Speed (km/s)
/
Latitude / Longitude
Inclination (degrees)
Orbital Period (minutes)
Azimuth
Elevation
Range (km)
Doppler Factor

Next 0 passes for location: London (51.5072 / 0.1276)

Sorry there are no passes over London.